# Land Stadt Wetter Temperatur Luftdruck Luftfeuchtigkeit Sichtweite Windgeschwindigkeit Windrichtung Ortszeit
1 cl Santiago Fog 10 1014 100 1200 1 282 02.08.2018 14:23
2 ru Werchojansk Clouds -11 1021 83 10000 1 173 02.08.2018 14:22
3 de Oberstdorf Rain 11 1019 65 7563 2 291 02.08.2018 14:21
4 pe Cusco Clouds 6 1021 95 10000 2 140 02.08.2018 14:23
5 gl Nuuk Clouds 1 1008 69 10000 2 0 02.08.2018 14:22
6 mx Veracruz Clouds 24 1012 57 10000 2 311 02.08.2018 14:21
7 cn Peking Clouds 16 999 62 10000 2 0 02.08.2018 14:23
8 de Torfhaus Clouds 9 1022 42 10000 3 116 02.08.2018 14:22
9 bs Nassau Clear 22 1016 100 10000 4 0 02.08.2018 14:22
10 ca Montreal Clouds -3 1004 68 10000 4 20 02.08.2018 14:22
11 ar Ushuaia Drizzle 6 1007 87 10000 4 90 02.08.2018 14:22
12 es Madrid Clouds 12 1014 77 10000 4 0 02.08.2018 14:23
13 bo Potisi Clear 5 1017 63 10000 5 292 02.08.2018 14:22
14 de Magdeburg Clouds 10 1021 49 10000 5 36 02.08.2018 14:22
15 gb Manchester Clouds 12 1028 46 10000 6 0 02.08.2018 14:21
16 no Hammerfest Snow 1 1007 75 10000 6 0 02.08.2018 14:22
17 mn Uliastai Clouds 3 1015 93 2398 6 269 02.08.2018 14:23
18 us Fairbanks Clear -1 1027 55 10000 6 24 02.08.2018 14:23
19 fj Suva Clouds 25 1013 88 10000 6 220 02.08.2018 14:21
20 kr Seoul Clouds 23 1017 32 10000 6 260 02.08.2018 14:21
21 br Manaus Clouds 25 1011 94 10000 6 40 02.08.2018 14:21
22 sa Riad Clear 39 1014 6 10000 6 0 02.08.2018 14:21
23 ch Bern Clouds 14 1019 55 10000 6 0 02.08.2018 14:23
24 us Honolulu Clouds 23 1019 64 10000 6 10 02.08.2018 14:22
25 us Tucson Clear 17 1011 19 10000 6 0 02.08.2018 14:21
26 us Death Valley Clouds 10 1006 25 10000 6 325 02.08.2018 14:22
27 ad Andorra la Vella Clouds 7 1016 58 10000 6 190 02.08.2018 14:22
28 es Sevilla Clouds 21 1014 56 10000 7 110 02.08.2018 14:22
29 pg Port Moresby Rain 28 1009 83 10000 7 170 02.08.2018 14:21
30 bo La Paz Clouds 5 1036 70 10000 7 340 02.08.2018 14:22
31 ar Esquel Mist 2 1015 100 3800 7 280 02.08.2018 14:22
32 us Los Angeles Clouds 13 1013 67 10000 7 218 02.08.2018 14:22
33 fi Rovaniemi Clear 6 1000 49 10000 7 20 02.08.2018 14:21
34 bg Sofia Clouds 17 1020 34 10000 7 0 02.08.2018 14:21
35 it Rom Clear 15 1017 67 10000 7 110 02.08.2018 14:23
36 de Stuttgart Clouds 11 1022 66 10000 7 0 02.08.2018 14:22
37 de München Clouds 11 1020 66 10000 7 310 02.08.2018 14:21
38 do Santo Domingo Clouds 23 1015 88 10000 7 360 02.08.2018 14:21
39 br Rio de Janeiro Clouds 21 1014 94 10000 8 220 02.08.2018 14:22
40 sb Honiara Clouds 26 1011 88 10000 8 123 02.08.2018 14:22
41 pt Lissabon Clouds 18 1015 67 10000 9 290 02.08.2018 14:22
42 ma Marrakesch Clear 22 1015 53 10000 9 0 02.08.2018 14:23
43 jp Nagasaki Clear 20 1016 49 10000 9 360 02.08.2018 14:21
44 mx Mexiko Stadt Clouds 13 1026 71 10000 9 60 02.08.2018 14:21
45 au Perth Clear 21 1020 43 10000 9 160 02.08.2018 14:21
46 us Miami Clouds 22 1016 73 10000 9 330 02.08.2018 14:23
47 it Mailand Clouds 16 1020 72 10000 9 170 02.08.2018 14:21
48 za Kapstadt Clear 23 1015 64 10000 9 290 02.08.2018 14:22
49 us Chicago Clouds 1 1019 75 10000 9 280 02.08.2018 14:23
50 no Oslo Clear 8 1011 37 10000 10 312 02.08.2018 14:23
51 in Jagatsukh Clouds 9 1017 96 1225 10 222 02.08.2018 14:22
52 et Addis Abeba Clouds 23 1026 38 10000 11 140 02.08.2018 14:23
53 at Innsbruck Clouds 12 1019 50 10000 11 70 02.08.2018 14:23
54 de Frankfurt Clear 9 1024 46 10000 11 40 02.08.2018 14:22
55 cd Kisangani Clouds 30 1013 66 10000 11 250 02.08.2018 14:23
56 de Köln Clouds 9 1025 49 10000 11 350 02.08.2018 14:21
57 au Darwin Clear 29 1009 70 10000 11 270 02.08.2018 14:22
58 ec San Cristobal Clouds 25 1010 85 10000 12 90 02.08.2018 14:22
59 tr Ankara Clouds 15 1021 38 10000 13 260 02.08.2018 14:23
60 tr Istanbul Clouds 16 1023 63 10000 13 240 02.08.2018 14:23
61 it Palermo Clouds 19 1014 82 10000 13 20 02.08.2018 14:22
62 de Freiburg Clouds 14 1018 70 10000 13 360 02.08.2018 14:22
63 de Emden Clouds 9 1025 70 10000 13 295 02.08.2018 14:21
64 au Alice Springs Clear 18 1020 29 10000 13 140 02.08.2018 14:21
65 us Las Vegas Clear 16 1006 31 10000 14 290 02.08.2018 14:21
66 ru Jakutsk Clear -1 1023 37 10000 14 290 02.08.2018 14:22
67 cn Shanghai Clouds 20 1010 88 10000 14 160 02.08.2018 14:21
68 ru Anadyr Clear -10 1025 92 10000 14 360 02.08.2018 14:23
69 ma Casablanca Clouds 19 1016 59 10000 15 340 02.08.2018 14:23
70 qa Doha Clear 36 1011 19 10000 15 110 02.08.2018 14:23
71 us Nome Clear 3 1024 52 10000 15 40 02.08.2018 14:23
72 de Trier Clear 9 1023 46 10000 15 90 02.08.2018 14:21
73 th Bangkok Clouds 32 1004 64 10000 15 194 02.08.2018 14:21
74 es Tarifa Clouds 18 1015 77 10000 15 220 02.08.2018 14:21
75 us New York Clouds 2 1009 65 10000 15 270 02.08.2018 14:22
76 bg Warna Clouds 17 1020 39 10000 17 160 02.08.2018 14:21
77 gb Glasgow Clouds 11 1027 58 10000 17 230 02.08.2018 14:21
78 us Denver Clouds -2 1011 80 10000 17 180 02.08.2018 14:21
79 is Reykjavik Rain 7 1019 76 10000 17 90 02.08.2018 14:22
80 es Palma de Mallorca Clouds 17 1016 67 10000 17 60 02.08.2018 14:22
81 tr Alanya Clear 26 1020 8 10000 17 320 02.08.2018 14:22
82 ie Dublin Clouds 12 1026 66 10000 17 130 02.08.2018 14:21
83 ua Kiew Clear 17 1015 44 10000 18 220 02.08.2018 14:21
84 ru Surgut Clear 6 1040 33 10000 18 200 02.08.2018 14:23
85 mv Male Clouds 32 1010 70 10000 19 260 02.08.2018 14:23
86 ar Buenos Aires Clouds 19 1016 82 10000 19 20 02.08.2018 14:22
87 gb London Clouds 11 1028 57 10000 19 70 02.08.2018 14:22
88 ke Nairobi Rain 24 1021 60 10000 19 170 02.08.2018 14:22
89 fr Paris Clear 13 1023 50 10000 19 30 02.08.2018 14:22
90 id Jakarta Clouds 31 1008 55 6000 19 30 02.08.2018 14:22
91 fr Nizza Clouds 16 1019 72 10000 19 90 02.08.2018 14:22
92 fi Helsinki Clouds 10 1003 50 10000 19 200 02.08.2018 14:21
93 de Nürnberg Clouds 9 1021 46 10000 19 290 02.08.2018 14:21
94 gr Athen Clouds 21 1021 28 10000 19 180 02.08.2018 14:22
95 se Stockholm Rain 2 1002 93 8000 20 330 02.08.2018 14:23
96 in Mumbai Smoke 33 1007 55 4000 20 300 02.08.2018 14:22
97 iq Bagdad Clear 36 1011 20 10000 20 300 02.08.2018 14:22
98 uy Montevideo Clear 17 1018 94 10000 20 50 02.08.2018 14:22
99 mg Antananarivo Clouds 23 1021 60 10000 20 100 02.08.2018 14:21
100 ae Dubai Clear 38 1010 12 10000 20 320 02.08.2018 14:21
101 mn Ulaanbaatar Clouds 13 1014 28 10000 22 320 02.08.2018 14:23
102 ch Andermatt Clouds 7 1019 51 10000 22 50 02.08.2018 14:23
103 fr Bordeaux Clear 19 1016 48 10000 22 120 02.08.2018 14:21
104 ru Moskau Clouds 13 1013 62 10000 22 200 02.08.2018 14:22
105 vn Hanoi Clouds 30 1004 74 10000 22 110 02.08.2018 14:21
106 au Sydney Clear 14 1015 41 10000 22 270 02.08.2018 14:22
107 at Wien Rain 10 1018 62 10000 22 340 02.08.2018 14:22
108 ck Avarua Rain 26 1015 78 10000 24 90 02.08.2018 14:22
109 in Nagpur Haze 39 1008 13 4000 24 360 02.08.2018 14:21
110 eg Kairo Clear 25 1019 38 10000 24 10 02.08.2018 14:22
111 nz Wellington Clouds 15 1010 82 10000 24 350 02.08.2018 14:23
112 ph Manila Clouds 29 1004 74 10000 24 240 02.08.2018 14:21
113 es Barcelona Clouds 15 1018 67 10000 26 70 02.08.2018 14:22
114 de Braunschweig Clouds 10 1021 57 10000 26 300 02.08.2018 14:21
115 de Kassel Clouds 7 1023 56 10000 26 300 02.08.2018 14:21
116 af Kabul Clear 18 1019 20 10000 28 10 02.08.2018 14:21
117 de Dresden Clouds 7 1020 52 10000 28 310 02.08.2018 14:22
118 de Bremen Clouds 10 1023 53 10000 30 310 02.08.2018 14:22
119 de Hannover Clouds 10 1023 57 10000 30 300 02.08.2018 14:21
120 es Las Palmas de Gran Canaria Clouds 21 1017 60 10000 30 30 02.08.2018 14:21
121 de Hiddensee Clear 10 1018 53 10000 32 303 02.08.2018 14:21
122 de Berlin Clouds 11 1018 53 10000 32 280 02.08.2018 14:21
123 de Hamburg Clouds 9 1020 53 10000 33 300 02.08.2018 14:21
124 ru Amderma Clouds 3 1016 80 10000 34 200 02.08.2018 14:23
125 cn Lhasa Clouds 14 998 15 10000 35 214 02.08.2018 14:22
126 de Helgoland Clouds 8 1023 61 10000 39 320 02.08.2018 14:22
127 jp Tokio Clouds 17 1018 77 10000 41 60 02.08.2018 14:22
128 de Flensburg Clouds 9 1018 61 10000 56 320 02.08.2018 14:21